TimeCST,TemperatureF,Dew PointF,Humidity,Sea Level PressureIn,VisibilityMPH,Wind Direction,Wind SpeedMPH,Gust SpeedMPH,PrecipitationIn,Events,Conditions,WindDirDegrees,DateUTC
12:15 AM,37.4,35.6,93,29.98,10.0,ENE,6.9,-,N/A,,Overcast,70,2012-12-09 06:15:00
12:35 AM,35.6,35.6,100,29.97,10.0,ENE,8.1,-,N/A,,Overcast,70,2012-12-09 06:35:00
12:55 AM,35.6,35.6,100,29.97,10.0,East,6.9,-,N/A,,Overcast,80,2012-12-09 06:55:00
1:15 AM,35.6,35.6,100,29.95,7.0,East,8.1,-,N/A,,Overcast,80,2012-12-09 07:15:00
1:35 AM,35.6,35.6,100,29.94,7.0,ENE,5.8,-,N/A,,Overcast,60,2012-12-09 07:35:00
1:55 AM,37.4,35.6,93,29.94,7.0,East,9.2,-,N/A,,Overcast,80,2012-12-09 07:55:00
2:15 AM,37.4,35.6,93,29.93,7.0,East,9.2,-,N/A,,Overcast,80,2012-12-09 08:15:00
2:35 AM,37.4,35.6,93,29.92,7.0,East,9.2,-,N/A,,Overcast,90,2012-12-09 08:35:00
2:55 AM,37.4,35.6,93,29.91,10.0,East,8.1,-,N/A,,Overcast,90,2012-12-09 08:55:00
3:15 AM,37.4,33.8,87,29.91,10.0,East,9.2,-,N/A,,Overcast,100,2012-12-09 09:15:00
3:35 AM,37.4,33.8,87,29.91,10.0,East,8.1,-,N/A,,Overcast,90,2012-12-09 09:35:00
3:55 AM,35.6,35.6,100,29.91,2.5,East,6.9,-,N/A,Rain,Light Rain,80,2012-12-09 09:55:00
4:15 AM,35.6,35.6,100,29.89,4.0,East,8.1,-,N/A,,Drizzle,80,2012-12-09 10:15:00
4:35 AM,35.6,35.6,100,29.88,4.0,East,9.2,-,N/A,Rain,Light Rain,80,2012-12-09 10:35:00
4:55 AM,35.6,35.6,100,29.88,4.0,East,6.9,-,N/A,,Overcast,80,2012-12-09 10:55:00
5:15 AM,35.6,35.6,100,29.86,2.0,East,10.4,-,N/A,,Overcast,80,2012-12-09 11:15:00
5:35 AM,35.6,35.6,100,29.87,2.0,ENE,8.1,-,N/A,,Light Drizzle,70,2012-12-09 11:35:00
5:55 AM,35.6,35.6,100,29.86,2.0,East,10.4,-,N/A,Rain,Light Rain,80,2012-12-09 11:55:00
6:15 AM,35.6,35.6,100,29.86,1.8,East,8.1,-,N/A,,Light Drizzle,80,2012-12-09 12:15:00
6:35 AM,35.6,35.6,100,29.86,1.5,East,6.9,-,N/A,,Overcast,90,2012-12-09 12:35:00
6:55 AM,35.6,35.6,100,29.87,1.8,East,8.1,-,N/A,,Overcast,90,2012-12-09 12:55:00
7:15 AM,35.6,35.6,100,29.86,1.8,East,5.8,-,N/A,,Overcast,90,2012-12-09 13:15:00
7:35 AM,35.6,35.6,100,29.86,1.5,East,5.8,-,N/A,,Overcast,100,2012-12-09 13:35:00
7:55 AM,35.6,35.6,100,29.85,1.5,East,4.6,-,N/A,,Overcast,90,2012-12-09 13:55:00
8:15 AM,37.4,37.4,100,29.85,2.0,East,3.5,-,N/A,,Overcast,90,2012-12-09 14:15:00
8:35 AM,37.4,37.4,100,29.86,1.5,Calm,Calm,-,N/A,,Overcast,0,2012-12-09 14:35:00
8:55 AM,37.4,37.4,100,29.86,1.5,Calm,Calm,-,N/A,,Overcast,0,2012-12-09 14:55:00
9:35 AM,37.4,37.4,100,29.86,1.0,Calm,Calm,-,N/A,,Overcast,0,2012-12-09 15:35:00
9:55 AM,37.4,37.4,100,29.85,0.8,Calm,Calm,-,N/A,,Overcast,0,2012-12-09 15:55:00
10:35 AM,37.4,37.4,100,29.84,1.0,Calm,Calm,-,N/A,,Overcast,0,2012-12-09 16:35:00
10:55 AM,37.4,37.4,100,29.83,1.0,Calm,Calm,-,N/A,,Overcast,0,2012-12-09 16:55:00
11:15 AM,37.4,37.4,100,29.83,1.0,Calm,Calm,-,N/A,,Overcast,0,2012-12-09 17:15:00
11:35 AM,39.2,39.2,100,29.82,1.0,Calm,Calm,-,N/A,,Overcast,0,2012-12-09 17:35:00
11:55 AM,39.2,39.2,100,29.81,1.5,South,4.6,-,N/A,,Overcast,190,2012-12-09 17:55:00
12:15 PM,39.2,39.2,100,29.81,2.0,SW,4.6,-,N/A,,Overcast,220,2012-12-09 18:15:00
12:35 PM,39.2,39.2,100,29.81,1.0,SW,4.6,-,N/A,,Overcast,230,2012-12-09 18:35:00
12:55 PM,39.2,39.2,100,29.80,1.8,West,5.8,-,N/A,,Overcast,260,2012-12-09 18:55:00
1:15 PM,39.2,39.2,100,29.80,4.0,West,6.9,-,N/A,,Overcast,270,2012-12-09 19:15:00
1:35 PM,39.2,39.2,100,29.80,7.0,WNW,8.1,-,N/A,,Overcast,290,2012-12-09 19:35:00
1:55 PM,41.0,39.2,93,29.80,10.0,West,9.2,-,N/A,,Overcast,280,2012-12-09 19:55:00
2:15 PM,39.2,37.4,93,29.79,10.0,West,12.7,-,N/A,,Overcast,270,2012-12-09 20:15:00
2:35 PM,39.2,37.4,93,29.79,10.0,West,11.5,16.1,N/A,,Overcast,280,2012-12-09 20:35:00
2:55 PM,39.2,37.4,93,29.82,10.0,West,15.0,18.4,N/A,,Overcast,270,2012-12-09 20:55:00
3:15 PM,39.2,37.4,93,29.82,10.0,West,10.4,-,N/A,,Overcast,270,2012-12-09 21:15:00
3:35 PM,39.2,37.4,93,29.83,10.0,WNW,15.0,-,N/A,,Overcast,290,2012-12-09 21:35:00
3:55 PM,39.2,37.4,93,29.83,10.0,West,9.2,-,N/A,,Overcast,280,2012-12-09 21:55:00
4:15 PM,39.2,37.4,93,29.83,10.0,WNW,9.2,-,N/A,,Overcast,290,2012-12-09 22:15:00
4:35 PM,39.2,37.4,93,29.82,10.0,WNW,9.2,-,N/A,,Mostly Cloudy,290,2012-12-09 22:35:00
4:55 PM,39.2,37.4,93,29.82,10.0,West,8.1,-,N/A,,Mostly Cloudy,280,2012-12-09 22:55:00
5:15 PM,39.2,37.4,93,29.82,10.0,WNW,10.4,-,N/A,,Overcast,290,2012-12-09 23:15:00
5:35 PM,39.2,37.4,93,29.81,10.0,WNW,9.2,-,N/A,,Overcast,290,2012-12-09 23:35:00
5:55 PM,39.2,37.4,93,29.82,10.0,West,6.9,-,N/A,,Overcast,280,2012-12-09 23:55:00
6:15 PM,39.2,37.4,93,29.83,10.0,WNW,10.4,-,N/A,,Overcast,290,2012-12-10 00:15:00
6:35 PM,39.2,35.6,87,29.83,10.0,WNW,17.3,-,N/A,,Overcast,300,2012-12-10 00:35:00
6:55 PM,37.4,35.6,93,29.83,10.0,WNW,15.0,20.7,N/A,,Overcast,290,2012-12-10 00:55:00
7:15 PM,35.6,33.8,93,29.84,10.0,WNW,17.3,25.3,N/A,,Overcast,290,2012-12-10 01:15:00
7:35 PM,33.8,30.2,87,29.86,10.0,WNW,16.1,25.3,N/A,,Overcast,300,2012-12-10 01:35:00
7:55 PM,33.8,30.2,87,29.87,10.0,WNW,16.1,23.0,N/A,,Overcast,290,2012-12-10 01:55:00
8:15 PM,32.0,26.6,80,29.87,10.0,WNW,16.1,24.2,N/A,,Overcast,290,2012-12-10 02:15:00
8:35 PM,30.2,26.6,86,29.87,10.0,WNW,13.8,23.0,N/A,,Overcast,290,2012-12-10 02:35:00
8:55 PM,30.2,26.6,86,29.88,10.0,WNW,13.8,-,N/A,,Overcast,290,2012-12-10 02:55:00
9:15 PM,28.4,24.8,86,29.88,10.0,West,17.3,25.3,N/A,,Overcast,280,2012-12-10 03:15:00
9:35 PM,28.4,23.0,80,29.88,10.0,West,16.1,24.2,N/A,,Overcast,280,2012-12-10 03:35:00
9:55 PM,26.6,21.2,80,29.88,10.0,WNW,18.4,26.5,N/A,,Overcast,290,2012-12-10 03:55:00
10:15 PM,26.6,21.2,80,29.89,10.0,WNW,17.3,24.2,N/A,,Overcast,290,2012-12-10 04:15:00
10:35 PM,26.6,21.2,80,29.89,10.0,WNW,15.0,24.2,N/A,,Overcast,290,2012-12-10 04:35:00
10:55 PM,26.6,21.2,80,29.90,10.0,WNW,18.4,24.2,N/A,,Overcast,300,2012-12-10 04:55:00
11:15 PM,24.8,21.2,86,29.89,10.0,WNW,16.1,23.0,N/A,,Overcast,290,2012-12-10 05:15:00
11:35 PM,24.8,19.4,80,29.90,10.0,WNW,19.6,25.3,N/A,,Overcast,290,2012-12-10 05:35:00
11:55 PM,24.8,19.4,80,29.90,10.0,WNW,13.8,21.9,N/A,,Overcast,300,2012-12-10 05:55:00